CZ-6A DEB, 55196

Orbit data source: Space-Track

CZ-6A DEB, 55196 is space debris in SSO originally from a launch on Fri, 11 Nov 2022 UTC launched from the Taiyaun Space Center, China (TSC). Debris objects in space refer to the collection of defunct objects orbiting the Earth. Examples of debris include non-operational satellites, rocket bodies, and fragments generated from explosions, collisions, or faulty payload assembly.

Loading next visibility...
Identifier
55196, 2022-151VM
Orbit
SSO
Country
Flag of CNCN / PRC
Related business
Manufacturer
SAST
Mission
Spacecraft
Bus & Motor
Unknown
Mass
Unknown
Launch date (UTC)
2022-11-11 (4 years ago)
Launch vehicle
Unknown
Launch site
Taiyaun Space Center, China (TSC)
Object type
Payload
Rocket body
Debris
Shape & HBR
Unknown shape, 0.1 m
Radar Cross Section
Medium (>0.1 m² and <1 m²)

Expand to show TLE details & history
Last TLE update: 2 days ago

TLE from 2 days ago
0 CZ-6A DEB
1 55196U 22151VM  26171.20293914  .00013740  00000-0  16865-2 0  9997
2 55196  98.6289 247.2496 0060534 244.6355 114.8580 14.81906518186129
Epoch: 2026-06-20T04:52Z
TLE epoch observation values (Epoch: 2026-06-20T04:52:13.941Z)
Latitude
-0.00004°
Longitude
-94.22942°
Altitude
644.344 km
Speed
7.526 km/s
True Right ascension
16h 28m 59s
True Declination
0° 00' 00"
Sunlit
Object was in full shadow at epoch
Visualization orbit readout
Latitude
Unknown
Longitude
Unknown
Altitude
Unknown
Speed
Unknown
Apparent Right ascension
Unknown
Apparent Declination
Unknown
Sunlit
N/A
Visualization observer readout
Local Sidereal Time
21:27:54
Azimuth
Unknown
Elevation
Unknown
Doppler factor
Unknown
Orbital elements
Apogee altitude
662.75 km
Perigee altitude
578.02 km
Semi-major axis
6,998.522 km
Eccentricity
0.00605
Inclination
98.6289°
RAAN
247.2496°
Arg. of periapsis
244.6355°
True anomaly
115.48539°
Mean anomaly
114.858°
Eccentric anomaly
115.1719°
Mean motion
3.70709 °/min
Orbital period
97.11 mins
BSTAR
0.0016865
Loading maneuver chart data...
Computing Atmospheric mass density...
Loading historical data...
Loading historical data...
Loading historical data...
Loading historical data...
Loading historical data...
Loading historical data...
Loading historical data...

Documentation

Showing up to 5 results
|